[[{"header":{"parameterUnit":"m.s-1","parameterCategory":1,"la1":30.2991,"la2":30.254,"lo1":-89.0895,"lo2":-89.0444,"dy":0.0017,"dx":0.0017,"nx":28,"ny":28,"refTime":"2025-04-13T21:00:00:Z","depth":0,"parameterNumber":2,"parameterNumberName":"U-component_of_WINDS"},"data":[0,0,0,0,0,0,0,0,0,0,0,0,0,0,0,0,0,0,0,0,0,0,0,0,0,0,0,0,0,0,0,0,0,0,0,0,0,0,0,0,0,0,0,0,0,0,0,0,0,0,0,0,0,0,0,0,0,0,5.2542,5.2544,0,5.265,5.2651,5.2652,5.2581,5.2578,5.2575,5.2572,5.2682,5.2688,5.2694,0,0,0,0,0,0,0,0,0,0,0,0,0,5.2276,5.2281,5.2542,5.2544,5.2545,5.265,5.2651,5.2653,5.2582,5.2578,5.2574,5.257,5.2681,5.2688,5.2695,0,0,0,0,0,0,0,0,0,0,0,0,0,5.2389,5.2283,5.2542,5.2522,5.2522,5.2649,5.2651,5.2653,5.2583,5.2578,5.2573,5.2568,5.2678,5.2687,5.2696,5.2849,0,0,5.2723,5.2727,0,0,0,0,0,0,0,0,5.2382,5.2398,5.2524,5.2524,5.2523,5.2597,5.2598,5.2719,5.2584,5.256,5.2572,5.2566,5.2658,5.2668,5.2699,5.2854,5.2859,5.2724,5.2729,5.2733,5.2736,0,0,0,0,0,0,0,5.2375,5.2393,5.2585,5.2526,5.2525,5.2508,5.2519,5.262,5.2635,5.2561,5.2556,5.257,5.2657,5.2691,5.2701,5.2861,5.2724,5.2732,5.2737,5.2741,5.3147,5.3152,0,0,0,0,0,0,5.2368,5.2387,5.2581,5.2588,5.2439,5.2517,5.2529,5.2578,5.2634,5.2637,5.2574,5.2566,5.2678,5.2691,5.2705,5.2888,5.2733,5.2742,5.2747,5.3142,5.3148,5.3154,0,0,0,0,0,0,5.2363,5.2386,5.2577,5.2486,5.2509,5.2527,5.2583,5.2583,5.2617,5.2643,5.2646,5.2606,5.2675,5.2692,5.2814,5.2891,5.2746,5.2754,5.3135,5.3144,5.3151,5.3256,0,0,0,0,0,0,5.2356,5.2385,5.2443,5.2488,5.2515,5.2684,5.2588,5.2589,5.2633,5.2623,5.2674,5.2678,5.2672,5.2801,5.2823,5.2901,5.2761,5.3129,5.3139,5.3149,5.3246,5.3267,5.3285,0,0,0,0,0,5.2346,5.2468,5.2446,5.247,5.2588,5.2689,5.2704,5.2695,5.2639,5.2698,5.2715,5.2676,5.2879,5.2814,5.2838,5.292,5.3124,5.3136,5.3148,5.3237,5.3263,5.3284,0,0,0,0,0,0,5.2432,5.2474,5.245,5.259,5.2637,5.2677,5.275,5.2722,5.2785,5.2774,5.276,5.2773,5.29,5.2922,5.2848,5.3071,5.2993,5.301,5.3052,5.3077,5.3096,5.3087,5.2768,0,0,0,0,0,5.2467,5.2545,5.2578,5.2699,5.2723,5.2733,5.2777,5.2766,5.2813,5.2832,5.2858,5.2906,5.298,5.303,5.31,5.3249,5.3259,5.3317,5.3336,5.3352,5.3368,5.3448,5.3474,5.3194,5.3194,5.3194,0,0,5.2541,5.2573,5.2623,5.2717,5.2751,5.2833,5.275,5.284,5.29,5.2846,5.2962,5.2983,5.3035,5.3171,5.3232,5.3194,5.3447,5.3368,5.338,5.3387,5.3463,5.349,5.3513,5.3202,5.3201,5.32,0,0,5.2716,5.2749,5.2853,5.2889,5.2942,5.2948,5.2974,5.3018,5.303,5.3146,5.3108,5.3179,5.3308,5.3347,5.3384,5.3575,5.3541,5.3598,5.3699,5.3778,5.38,5.382,5.3888,5.3912,5.3613,5.3613,5.3614,0,5.28,5.2922,5.291,5.3003,5.3045,5.3,5.3105,5.3141,5.3215,5.3245,5.3201,5.3362,5.3394,5.3538,5.3585,5.3616,5.3644,5.3592,5.3798,5.3817,5.3835,5.39,5.3926,5.362,5.3619,5.3619,5.3618,0,5.3023,5.3108,5.3186,5.3258,5.3309,5.3408,5.3411,5.3464,5.3449,5.346,5.3579,5.3616,5.3693,5.3727,5.3713,5.387,5.3844,5.3799,5.372,5.3869,5.3929,5.3954,5.3629,5.3627,5.3625,5.3623,0,0,5.3255,5.332,5.3348,5.3381,5.3436,5.3502,5.3599,5.3674,5.372,5.3772,5.3853,5.3964,5.3923,5.3964,5.3955,5.4024,5.4173,5.3971,5.3972,5.4007,5.4348,5.4381,5.4409,5.4151,5.4156,5.416,5.4343,0,5.3433,5.3602,5.3595,5.3753,5.3831,5.379,5.3874,5.3918,5.3931,5.3999,5.4013,5.4091,5.4031,5.4056,5.4123,5.4141,5.4241,5.4127,5.4226,5.423,5.4214,5.4441,5.4476,5.4648,5.4367,5.4371,5.4374,0,5.3664,5.3724,5.389,5.3935,5.3967,5.4043,5.4111,5.4177,5.4226,5.4231,5.4278,5.4257,5.4355,5.4274,5.4409,5.4332,5.4372,5.4387,5.4394,5.4402,5.431,5.4455,5.4702,5.4728,5.4411,5.4408,5.4405,0,5.3816,5.3939,5.4054,5.4083,5.4138,5.4192,5.4218,5.4262,5.4307,5.4367,5.4397,5.4467,5.4506,5.4561,5.456,5.4501,5.4698,5.4616,5.4704,5.4704,5.4747,5.4744,5.5003,5.4774,5.4774,5.4773,5.4773,0,5.4016,5.4119,5.4123,5.4194,5.4309,5.4299,5.4413,5.4432,5.4472,5.4546,5.4515,5.4585,5.4579,5.4651,5.4651,5.4763,5.4781,5.4787,5.4786,5.479,5.4789,5.4815,5.4803,5.478,5.4778,5.4777,5.4776,0,5.4206,5.4212,5.4335,5.4377,5.439,5.4472,5.4508,5.4575,5.4586,5.468,5.4701,5.4718,5.48,5.4804,5.4899,5.4899,5.5035,5.5021,5.5019,5.5016,5.5104,5.5095,5.5388,5.5426,5.5173,5.5175,5.5177,0,5.4333,5.4411,5.4461,5.4508,5.4537,5.4614,5.466,5.4654,5.4704,5.4765,5.4825,5.4904,5.4967,5.51,5.5121,5.5193,5.518,5.5278,5.5191,5.5192,5.5181,5.5176,5.5184,5.5295,5.5297,5.53,5.5302,0,5.4557,5.4557,5.4625,5.4695,5.4751,5.4805,5.4856,5.4897,5.4897,5.4954,5.5038,5.5087,5.5183,5.5262,5.5333,5.5359,5.5331,5.5329,5.5353,5.5358,5.5353,5.5356,5.5065,5.5322,5.532,5.5319,5.5317,5.5317,5.4719,5.4787,5.4833,5.4909,5.4947,5.4995,5.5061,5.5079,5.5148,5.5226,5.5219,5.5312,5.5358,5.545,5.5482,5.5555,5.5521,5.5556,5.5565,5.5574,5.5583,5.5342,5.5568,5.5567,5.5567,5.5566,5.5566,0,5.4942,5.4969,5.504,5.5112,5.5173,5.5141,5.5195,5.5248,5.533,5.5376,5.5439,5.5535,5.5611,5.5638,5.5712,5.5765,5.5754,5.5785,5.5781,5.5787,5.5609,5.558,5.5793,5.5793,5.5793,5.5792,5.5792,5.5792,5.5064,5.5177,5.5182,5.5313,5.534,5.5431,5.5465,5.5509,5.5546,5.5654,5.5717,5.5734,5.5773,5.585,5.5918,5.5924,5.5953,5.5989,5.599,5.5823,5.58,5.5778,5.5751,5.5996,5.5996,5.6162,5.6163,5.6165]},{"header":{"parameterUnit":"m.s-1","parameterCategory":1,"la1":30.2991,"la2":30.254,"lo1":-89.0895,"lo2":-89.0444,"dy":0.0017,"dx":0.0017,"nx":28,"ny":28,"refTime":"2025-04-13T21:00:00:Z","depth":0,"parameterNumber":3,"parameterNumberName":"V-component_of_WINDS"},"data":[0,0,0,0,0,0,0,0,0,0,0,0,0,0,0,0,0,0,0,0,0,0,0,0,0,0,0,0,0,0,0,0,0,0,0,0,0,0,0,0,0,0,0,0,0,0,0,0,0,0,0,0,0,0,0,0,0,0,-1.3002,-1.3003,0,-1.3104,-1.3105,-1.3106,-1.3151,-1.315,-1.315,-1.315,-1.3251,-1.3254,-1.3257,0,0,0,0,0,0,0,0,0,0,0,0,0,-1.2845,-1.2847,-1.3002,-1.3004,-1.3005,-1.3104,-1.3105,-1.3106,-1.3151,-1.315,-1.315,-1.315,-1.325,-1.3254,-1.3257,0,0,0,0,0,0,0,0,0,0,0,0,0,-1.2926,-1.2848,-1.3002,-1.3039,-1.3043,-1.3103,-1.3105,-1.3107,-1.3151,-1.315,-1.315,-1.315,-1.3249,-1.3253,-1.3258,-1.3288,0,0,-1.3271,-1.3272,0,0,0,0,0,0,0,0,-1.2921,-1.2932,-1.3032,-1.3036,-1.3041,-1.3114,-1.3087,-1.3167,-1.3151,-1.311,-1.315,-1.315,-1.3206,-1.3214,-1.3233,-1.3293,-1.3297,-1.3271,-1.3273,-1.3275,-1.3277,0,0,0,0,0,0,0,-1.2916,-1.2928,-1.3042,-1.3034,-1.3039,-1.305,-1.3061,-1.3102,-1.3158,-1.3113,-1.3117,-1.3128,-1.3208,-1.3229,-1.3236,-1.3299,-1.3271,-1.3275,-1.3277,-1.3279,-1.3389,-1.3389,0,0,0,0,0,0,-1.2904,-1.2923,-1.3039,-1.3045,-1.298,-1.3053,-1.3065,-1.3091,-1.3157,-1.3167,-1.3128,-1.313,-1.3222,-1.3231,-1.3239,-1.328,-1.3275,-1.3279,-1.3282,-1.3389,-1.3389,-1.3389,0,0,0,0,0,0,-1.2901,-1.2914,-1.3035,-1.2985,-1.3001,-1.3056,-1.3084,-1.3093,-1.3114,-1.3169,-1.3179,-1.3139,-1.3222,-1.3233,-1.3276,-1.3284,-1.3281,-1.3285,-1.3388,-1.3389,-1.3389,-1.3361,0,0,0,0,0,0,-1.2896,-1.2913,-1.2925,-1.2985,-1.3004,-1.307,-1.3085,-1.3095,-1.3121,-1.3125,-1.3182,-1.3191,-1.3223,-1.3269,-1.328,-1.329,-1.3288,-1.3388,-1.3388,-1.3389,-1.3361,-1.336,-1.3359,0,0,0,0,0,-1.289,-1.2913,-1.2926,-1.294,-1.3021,-1.3071,-1.3081,-1.3118,-1.3122,-1.3135,-1.317,-1.3189,-1.3281,-1.3273,-1.3286,-1.3297,-1.3387,-1.3388,-1.3389,-1.3361,-1.336,-1.3359,0,0,0,0,0,0,-1.2851,-1.2921,-1.2936,-1.2979,-1.3019,-1.3078,-1.3096,-1.3116,-1.3155,-1.3156,-1.3199,-1.3211,-1.325,-1.3278,-1.3268,-1.333,-1.3336,-1.3339,-1.3311,-1.331,-1.3309,-1.3302,-1.3292,0,0,0,0,0,-1.2848,-1.2883,-1.2942,-1.2974,-1.2993,-1.3041,-1.3064,-1.3089,-1.3132,-1.3148,-1.3187,-1.3227,-1.3265,-1.3289,-1.3327,-1.3365,-1.3378,-1.3379,-1.3378,-1.3377,-1.3379,-1.3402,-1.3403,-1.3392,-1.3392,-1.3392,0,0,-1.284,-1.2883,-1.2902,-1.2967,-1.3001,-1.3036,-1.3055,-1.3091,-1.3117,-1.3154,-1.3197,-1.3226,-1.3273,-1.3314,-1.3334,-1.3338,-1.3386,-1.3378,-1.3377,-1.338,-1.3403,-1.3404,-1.3405,-1.3393,-1.3393,-1.3393,0,0,-1.2845,-1.2881,-1.2912,-1.2945,-1.2997,-1.3029,-1.3036,-1.3093,-1.3114,-1.3158,-1.3186,-1.3218,-1.3282,-1.3315,-1.3341,-1.3359,-1.3378,-1.337,-1.3365,-1.3387,-1.3388,-1.3389,-1.3395,-1.3397,-1.3372,-1.3372,-1.3372,0,-1.2829,-1.2885,-1.2924,-1.296,-1.2987,-1.3023,-1.3054,-1.3084,-1.3145,-1.3163,-1.3167,-1.325,-1.3284,-1.3333,-1.3338,-1.3357,-1.3366,-1.3363,-1.3384,-1.3386,-1.3387,-1.3394,-1.3396,-1.3371,-1.3371,-1.3371,-1.3371,0,-1.2863,-1.2901,-1.2919,-1.2978,-1.3008,-1.304,-1.3085,-1.311,-1.3132,-1.3163,-1.3208,-1.325,-1.3298,-1.3311,-1.3333,-1.3364,-1.3365,-1.3376,-1.3383,-1.3386,-1.3394,-1.3396,-1.3369,-1.3369,-1.337,-1.337,0,0,-1.2845,-1.2927,-1.2933,-1.2961,-1.302,-1.305,-1.3084,-1.3132,-1.3153,-1.3193,-1.3223,-1.3277,-1.3289,-1.3317,-1.3343,-1.3362,-1.3374,-1.3371,-1.3373,-1.337,-1.341,-1.3402,-1.3404,-1.3387,-1.3388,-1.3388,-1.3406,0,-1.2859,-1.2923,-1.296,-1.3009,-1.3045,-1.3079,-1.3109,-1.3148,-1.3179,-1.3212,-1.3245,-1.3283,-1.3295,-1.3312,-1.3333,-1.3368,-1.3382,-1.3367,-1.3415,-1.3416,-1.3402,-1.3408,-1.3399,-1.3414,-1.3409,-1.341,-1.341,0,-1.2883,-1.2924,-1.2977,-1.3033,-1.3049,-1.3076,-1.3123,-1.3155,-1.32,-1.3221,-1.3253,-1.3279,-1.3316,-1.332,-1.3372,-1.3361,-1.3382,-1.3403,-1.3404,-1.341,-1.3413,-1.3414,-1.342,-1.3422,-1.3415,-1.3415,-1.3414,0,-1.2865,-1.2934,-1.2975,-1.2997,-1.3063,-1.3081,-1.311,-1.3155,-1.3182,-1.3222,-1.324,-1.3284,-1.3308,-1.3341,-1.3378,-1.3377,-1.3426,-1.3433,-1.3444,-1.3443,-1.3453,-1.3452,-1.3462,-1.3466,-1.3466,-1.3466,-1.3466,0,-1.2876,-1.2907,-1.2968,-1.2993,-1.3028,-1.307,-1.3104,-1.3135,-1.3175,-1.3207,-1.3239,-1.3267,-1.3314,-1.3348,-1.3377,-1.3416,-1.3427,-1.3444,-1.3451,-1.3441,-1.3439,-1.3456,-1.3456,-1.3467,-1.3467,-1.3467,-1.3466,0,-1.2863,-1.2904,-1.2951,-1.3011,-1.3026,-1.305,-1.3101,-1.3126,-1.3158,-1.3197,-1.3209,-1.3258,-1.33,-1.3341,-1.3396,-1.3416,-1.3455,-1.3464,-1.344,-1.3444,-1.3452,-1.3451,-1.3474,-1.3479,-1.348,-1.3479,-1.3479,0,-1.2867,-1.2892,-1.2954,-1.2978,-1.3006,-1.3044,-1.3071,-1.3114,-1.3141,-1.3195,-1.3213,-1.3258,-1.3296,-1.3361,-1.3402,-1.3445,-1.3456,-1.3461,-1.3462,-1.3451,-1.3456,-1.3454,-1.3457,-1.346,-1.3459,-1.3459,-1.3459,0,-1.287,-1.289,-1.2929,-1.2975,-1.3008,-1.3046,-1.3085,-1.3102,-1.3152,-1.3181,-1.3225,-1.3254,-1.3312,-1.3355,-1.3403,-1.3432,-1.3454,-1.3459,-1.3463,-1.3453,-1.3438,-1.3447,-1.3437,-1.3458,-1.3458,-1.3458,-1.3458,-1.3458,-1.2866,-1.289,-1.2938,-1.2981,-1.3015,-1.3051,-1.3078,-1.3114,-1.3151,-1.3202,-1.3225,-1.3269,-1.3314,-1.338,-1.3409,-1.3443,-1.3449,-1.3456,-1.3457,-1.3458,-1.3456,-1.3432,-1.3452,-1.3452,-1.3452,-1.3452,-1.3453,0,-1.2872,-1.2904,-1.2943,-1.2998,-1.3031,-1.305,-1.3094,-1.312,-1.3159,-1.32,-1.3237,-1.3287,-1.333,-1.3374,-1.3419,-1.3439,-1.345,-1.3449,-1.3448,-1.3454,-1.3449,-1.344,-1.3439,-1.3439,-1.3439,-1.3439,-1.3439,-1.3439,-1.2878,-1.292,-1.2945,-1.3004,-1.3037,-1.3081,-1.3105,-1.3138,-1.3171,-1.3226,-1.3262,-1.3291,-1.3333,-1.3382,-1.3422,-1.3433,-1.3449,-1.3445,-1.3459,-1.3454,-1.3455,-1.3455,-1.3448,-1.3448,-1.3448,-1.3462,-1.3462,-1.3462]}]]